Weather History for KFLG - September, 2013

Change the Weather History Date:

Thursday, September 26, 2013

  Actual Average Record
Temperature  
Mean Temperature 52 °F 54 °F  
Max Temperature 64 °F 70 °F 84 °F (1899)
Min Temperature 39 °F 38 °F 22 °F (1934)
Degree Days  
Heating Degree Days 13 11  
Month to date heating degree days 166 181  
Since 1 July heating degree days 224 269  
Cooling Degree Days 0 0  
Month to date cooling degree days 4 0  
Year to date cooling degree days 148 114  
Growing Degree Days 1 (Base 50)    
Moisture  
Dew Point 35 °F    
Average Humidity 57    
Maximum Humidity 86    
Minimum Humidity 27    
Precipitation  
Precipitation 0.18 in 0.06 in 1.35 in (1997)
Month to date precipitation 3.24 2.12  
Year to date precipitation 20.92 16.31  
Snow  
Snow 0.00 in 0.00 in 0.00 in (2002)
Month to date snowfall 0.0 0.0  
Since 1 July snowfall 0.0 0.0  
Snow Depth 0.00 in    
Sea Level Pressure  
Sea Level Pressure 29.64 in    
Wind  
Wind Speed 21 mph (SW)    
Max Wind Speed 46 mph    
Max Gust Speed 64 mph    
Visibility 10 miles    
Events Rain    
T = Trace of Precipitation, MM = Missing Value Source: NWS Daily Summary

Daily Weather History Graph

Daily Weather History Graph

Search for Another Location

Airport or City:

Trip Planner

Search our weather history database for the weather conditions in past years. The results will help you decide how hot, cold, wet, or windy it might be!

Date:

Astronomy

Sep. 26, 2013 Rise Set
Actual Time 6:17 AM MST 6:17 PM MST
Civil Twilight 5:52 AM MST 6:42 PM MST
Nautical Twilight 5:23 AM MST 7:11 PM MST
Astronomical Twilight 4:53 AM MST 7:41 PM MST
Moon 11:29 PM MST 1:01 PM MST
Length of Visible Light 12h 49m
Length of Day
11h 59m
Waning Gibbous, 53% of the Moon is Illuminated
Sep 26
Waning Gibbous
Sep 26
Last Quarter
Oct 4
New
Oct 11
First Quarter
Oct 18
Full

Hourly Weather History & Observations

Time (MST) Temp. Windchill Dew Point Humidity Pressure Visibility Wind Dir Wind Speed Gust Speed Precip Events Conditions
12:57 AM 54.0 °F - 36.0 °F 51% 29.62 in 10.0 mi SW 21.9 mph 29.9 mph N/A   Clear
1:57 AM 52.0 °F - 35.1 °F 53% 29.61 in 10.0 mi SW 19.6 mph 32.2 mph N/A   Clear
2:57 AM 51.1 °F - 37.0 °F 59% 29.61 in 10.0 mi SW 19.6 mph 34.5 mph N/A   Clear
3:57 AM 50.0 °F - 39.0 °F 66% 29.62 in 10.0 mi SW 15.0 mph 24.2 mph N/A   Clear
4:57 AM 50.0 °F - 36.0 °F 59% 29.62 in 10.0 mi SW 20.7 mph 26.5 mph N/A   Clear
5:57 AM 48.0 °F - 36.0 °F 63% 29.64 in 10.0 mi SW 13.8 mph - N/A   Clear
6:57 AM 48.9 °F - 34.0 °F 56% 29.65 in 10.0 mi SW 16.1 mph 23.0 mph N/A   Clear
7:57 AM 52.0 °F - 32.0 °F 47% 29.64 in 10.0 mi SSW 24.2 mph 33.4 mph N/A   Clear
8:57 AM 55.0 °F - 30.9 °F 40% 29.63 in 10.0 mi SSW 21.9 mph 33.4 mph N/A   Clear
9:57 AM 57.0 °F - 30.0 °F 36% 29.64 in 10.0 mi SSW 24.2 mph 34.5 mph N/A   Clear
10:57 AM 59.0 °F - 30.0 °F 33% 29.61 in 10.0 mi SW 27.6 mph 39.1 mph N/A   Clear
11:57 AM 61.0 °F - 32.0 °F 34% 29.59 in 10.0 mi SSW 27.6 mph 40.3 mph N/A   Clear
12:57 PM 63.0 °F - 28.0 °F 27% 29.57 in 10.0 mi SW 32.2 mph 52.9 mph N/A   Clear
1:57 PM 63.0 °F - 30.9 °F 30% 29.58 in 10.0 mi SW 21.9 mph 43.7 mph N/A   Clear
2:57 PM 63.0 °F - 34.0 °F 34% 29.57 in 10.0 mi SSW 36.8 mph 58.7 mph N/A   Clear
3:57 PM 61.0 °F - 35.1 °F 38% 29.60 in 10.0 mi SSW 35.7 mph 48.3 mph N/A   Clear
4:57 PM 60.1 °F - 36.0 °F 41% 29.60 in 10.0 mi SW 34.5 mph 49.5 mph N/A   Clear
5:57 PM 57.9 °F - 37.0 °F 46% 29.62 in 10.0 mi SW 40.3 mph 51.8 mph N/A   Mostly Cloudy
6:57 PM 52.0 °F - 43.0 °F 71% 29.65 in 7.0 mi SSW 25.3 mph 41.4 mph 0.00 in Rain Light Rain
7:57 PM 48.9 °F - 43.0 °F 80% 29.68 in 9.0 mi SW 18.4 mph 28.8 mph 0.08 in Rain Light Rain
8:57 PM 44.1 °F 39.0 °F 36.0 °F 73% 29.72 in 8.0 mi WSW 9.2 mph - 0.01 in Rain Light Rain
9:57 PM 41.0 °F - 37.9 °F 89% 29.73 in 6.0 mi Calm Calm - 0.08 in Rain Light Rain
10:57 PM 39.9 °F 36.7 °F 33.1 °F 77% 29.74 in 10.0 mi West 4.6 mph - 0.01 in   Overcast
11:57 PM 39.9 °F - 32.0 °F 73% 29.74 in 10.0 mi Calm Calm - N/A   Overcast